User: anonymous   Login
Location: Caltech
(34.1382°N, 118.1253°W)
Time: 11:54:54
(UTC-07:00)
Language:

PAYLOAD A - Orbit

View from above orbital plane
View from above orbital plane
View from above satellite
View from above satellite

Ground track
Ground track

The orbit data is extracted from the following two-line orbital elements,

1 27840U 03031A   18174.98693316 -.00000006  00000-0  11442-4 0  9997
2 27840  98.2323 162.0287 0099511  78.8344 282.4012 14.38905075786782
Epoch (UTC): 23 June 2018 23:41:11
Eccentricity: 0.0099511
inclination: 98.2323°
perigee height: 691 km
apogee height: 833 km
right ascension of ascending node: 162.0287°
argument of perigee: 78.8344°
revolutions per day: 14.38905075
mean anomaly at epoch: 282.4012°
orbit number at epoch: 78678

The dashed part of the orbit path shows where the satellite is in the earth's shadow,  

DLR